Showing default

HULIANWANG DIGUI-147, 67523

Orbit data source: Space-Track

HULIANWANG DIGUI-147, 67523 is a payload satellite owned by Zhongguo Xingwang (CN) in LEO that was launched on Mon, 19 Jan 2026 UTC via a CHANG ZHENG 12 launch vehicle from the Wenchang Satellite Launch Center (WSC). Payload-class satellites include a variety of spacecraft equipped with specific instruments for various scientific and technological missions. These include communications satellites like Starlink; space stations such as the ISS; scientific satellites like the Hubble; Earth observation satellites from companies like Planet Labs, Umbra, and HawkEye 360; GPS; miniature CubeSats for education and research; and military/defense satellites.

Loading next visibility...
Identifier
67523, 2026-013B
Orbit
LEO
Country
Flag of CNCN / PRC
Related business
Manufacturer
YINNT
Mission
Operational spacecraft
Bus & Motor
XINGWANG Y, Unknown motor
Mass
~800 kg wet, ~800 kg dry
Launch date (UTC)
2026-01-19 (3 weeks ago)
Launch vehicle
CHANG ZHENG 12
Launch site
Wenchang Satellite Launch Center (WSC)
Object type
Payload
Rocket body
Debris
Shape & HBR
Unknown
Radar Cross Section
RCS unknown

Expand to show TLE details & history
Last TLE update: 23 hours ago

TLE from 23 hours ago
0 HULIANWANG DIGUI-147
1 67523U 26013B   26039.37839769 -.00000018  00000-0  11370-3 0  9992
2 67523  50.0070 104.8767 0000803 347.2964  12.7911 13.83183237  2806
Epoch: 2026-02-08T09:04Z
TLE epoch observation values (Epoch: 2026-02-08T09:04:53.560Z)
Latitude
-0.00003°
Longitude
-169.83492°
Altitude
952.564 km
Speed
7.377 km/s
True Right ascension
06h 59m 30s
True Declination
0° 00' 00"
Sunlit
Object was in full shadow at epoch
Visualization orbit readout
Latitude
Unknown
Longitude
Unknown
Altitude
Unknown
Speed
Unknown
Apparent Right ascension
Unknown
Apparent Declination
Unknown
Sunlit
N/A
Visualization observer readout
Local Sidereal Time
10:09:51
Azimuth
Unknown
Elevation
Unknown
Doppler factor
Unknown
Orbital elements
Apogee altitude
953.93 km
Perigee altitude
952.752 km
Semi-major axis
7,331.478 km
Eccentricity
0.00008
Inclination
50.007°
RAAN
104.8767°
Arg. of periapsis
347.2964°
True anomaly
12.79314°
Mean anomaly
12.7911°
Eccentric anomaly
12.79212°
Mean motion
3.45745 °/min
Orbital period
104.12 mins
BSTAR
0.0001137
Loading maneuver chart data...
Computing Atmospheric mass density...
Loading historical data...
Loading historical data...
Loading historical data...
Loading historical data...
Loading historical data...
Loading historical data...
Loading historical data...

Documentation

Showing up to 5 results
|